This demonstration page uses our WeatherBlox Daily Observations layout. Learn more.

Left ArrowRight Arrow

Hourly Observations for March 15, 2021

Temp ( °F °C ) Dew Point ( °F °C ) Humidity (%) Winds ( mph kmh ) Pressure ( in mb ) Visibility ( mi km ) Precip ( " mm )
12:15 am 00:15 Cloudy with Drizzle 40 4.3 39 4 98 98 E 14 22 29.85 1011 3 5 N/A
12:35 am 00:35 Cloudy 40 4.2 39 4 99 99 E 9 15 29.84 1011 7 11 N/A
12:55 am 00:55 Cloudy 40 4.2 39 4 99 99 ENE 10 17 29.84 1011 10 16 N/A
1:15 am 01:15 Cloudy 40 4.2 39 4 99 99 ENE 15 24 29.82 1010 7 11 N/A
1:35 am 01:35 Cloudy 39 4.1 39 3.8 98 98 ENE 8 13 29.82 1010 7 11 N/A
1:55 am 01:55 Cloudy 39 4.1 39 3.8 98 98 E 10 17 29.83 1010 7 11 N/A
2:15 am 02:15 Cloudy with Mist and Fog 40 4.2 39 4 99 99 E 10 17 29.81 1010 1 2 N/A
2:35 am 02:35 Cloudy with Mist and Fog 40 4.3 39 4 98 98 E 8 13 29.83 1010 1 1 N/A
2:55 am 02:55 Cloudy with Mist and Fog 40 4.4 39 4 97 97 ENE 9 15 29.83 1010 1 1 N/A
3:15 am 03:15 Cloudy with Mist and Fog 40 4.5 39 4.1 97 97 E 9 15 29.83 1010 1 1 N/A
3:35 am 03:35 Cloudy with Mist and Fog 40 4.3 39 4 98 98 ENE 9 15 29.81 1010 2 2 N/A
3:55 am 03:55 Cloudy with Mist and Fog 40 4.3 39 4 98 98 ENE 10 17 29.80 1009 2 3 N/A
4:15 am 04:15 Cloudy 40 4.3 39 4 98 98 ENE 10 17 29.80 1009 7 11 N/A
4:35 am 04:35 Cloudy with Mist and Fog 40 4.3 39 4 98 98 E 13 20 29.80 1009 5 8 N/A
4:55 am 04:55 Cloudy with Mist and Fog 40 4.3 39 4 98 98 E 9 15 29.80 1009 3 5 N/A
5:15 am 05:15 Cloudy with Mist and Fog 40 4.5 39 4.1 97 97 ENE 10 17 29.80 1009 2 3 N/A
5:35 am 05:35 Cloudy with Mist and Fog 40 4.5 39 4.1 97 97 NE 10 17 29.80 1009 3 5 N/A
5:55 am 05:55 Cloudy with Mist and Fog 40 4.5 39 4.1 97 97 NE 10 17 29.79 1009 1 2 N/A
6:15 am 06:15 Cloudy with Mist and Fog 40 4.5 39 4.1 97 97 NE 13 20 29.79 1009 1 1 N/A
6:35 am 06:35 Cloudy with Mist and Fog 40 4.5 39 4.1 97 97 NE 13 20 29.79 1009 1 1 N/A
6:55 am 06:55 Cloudy with Drizzle 40 4.5 39 4.1 97 97 NNE 12 19 29.79 1009 2 2 N/A
7:15 am 07:15 Cloudy with Light Rain 40 4.5 39 4.1 97 97 NE 8 13 29.80 1009 3 4 N/A
7:35 am 07:35 Cloudy with Mist and Fog 40 4.5 39 4.1 97 97 NE 10 17 29.80 1009 2 2 N/A
7:55 am 07:55 Cloudy with Mist and Fog 40 4.5 39 4.1 97 97 NNE 12 19 29.80 1009 2 2 N/A
8:15 am 08:15 Cloudy with Mist and Fog 40 4.5 39 4.1 97 97 NE 10 17 29.81 1010 5 8 N/A
8:35 am 08:35 Cloudy 40 4.5 39 4.1 97 97 NNE 10 17 29.81 1010 7 11 N/A
8:55 am 08:55 Cloudy with Rain 40 4.5 39 4.1 97 97 N 10 17 29.81 1010 7 11 N/A
9:55 am 09:55 Cloudy with Drizzle 39 3.7 38 3.5 99 99 NNE 10 17 29.84 1010 7 11 0.03 0.76
10:15 am 10:15 Cloudy with Drizzle 38 3.6 38 3.4 99 99 N 14 22 29.84 1011 10 16 N/A
10:35 am 10:35 Cloudy with Rain 38 3.5 38 3.2 98 98 N 9 15 29.85 1011 10 16 N/A
10:55 am 10:55 Cloudy with Light Rain 38 3.4 37 3 97 97 N 12 19 29.85 1011 10 16 N/A
11:15 am 11:15 Cloudy with Light Rain 38 3.5 38 3.2 98 98 N 10 17 29.85 1011 10 16 0.01 0.25
11:35 am 11:35 Cloudy with Rain 39 3.8 38 3.5 98 98 N 9 15 29.85 1011 10 16 0.01 0.25
11:55 am 11:55 Cloudy with Drizzle 39 3.9 38 3.5 97 97 N 10 17 29.85 1011 7 11 0.01 0.25
12:15 pm 12:15 Cloudy with Light Rain 38 3.4 37 2.9 97 97 NNW 12 19 29.85 1011 10 16 N/A
12:35 pm 12:35 Cloudy 38 3.3 37 2.8 97 97 NNW 14 22 29.85 1011 10 16 N/A
12:55 pm 12:55 Cloudy with Light Rain 38 3.5 37 3 97 97 NNW 12 19 29.85 1011 10 16 N/A
1:15 pm 13:15 Cloudy with Light Rain 38 3.5 37 2.9 96 96 NNW 13 20 29.85 1011 10 16 N/A
1:35 pm 13:35 Cloudy with Rain 38 3.6 37 3 96 96 NNW 9 15 29.85 1011 10 16 0.01 0.25
1:55 pm 13:55 Cloudy with Drizzle 39 4.1 38 3.5 96 96 N 10 17 29.85 1011 10 16 0.01 0.25
2:15 pm 14:15 Cloudy 41 4.8 40 4.2 96 96 N 12 19 29.83 1010 10 16 N/A
2:35 pm 14:35 Cloudy 41 5.1 40 4.3 95 95 NNE 12 19 29.83 1010 10 16 N/A
2:55 pm 14:55 Cloudy 42 5.5 40 4.4 93 93 N 13 20 29.81 1010 10 16 N/A
3:15 pm 15:15 Cloudy 42 5.5 40 4.2 91 91 NNE 12 19 29.81 1010 10 16 N/A
3:35 pm 15:35 Cloudy 42 5.7 39 4.1 90 90 NNE 9 15 29.81 1010 10 16 N/A
3:55 pm 15:55 Cloudy 42 5.5 39 4 90 90 NE 9 15 29.80 1009 10 16 N/A
4:15 pm 16:15 Cloudy 43 6 40 4.3 89 89 NNE 7 11 29.80 1009 10 16 N/A
4:35 pm 16:35 Cloudy 43 6.2 40 4.2 87 87 ENE 7 11 29.79 1009 10 16 N/A
4:55 pm 16:55 Cloudy 43 6.1 39 4 87 87 N N/A 29.80 1009 10 16 N/A
5:15 pm 17:15 Cloudy 43 6.2 39 3.9 85 85 N N/A 29.81 1009 10 16 N/A
5:35 pm 17:35 Cloudy 43 6.3 38 3.2 81 81 N N/A 29.82 1010 10 16 N/A
5:55 pm 17:55 Cloudy 43 6.2 39 3.7 84 84 N N/A 29.82 1010 10 16 N/A
6:15 pm 18:15 Cloudy 43 6.2 39 3.8 85 85 N N/A 29.83 1010 10 16 N/A
6:35 pm 18:35 Cloudy 43 6.2 39 3.7 84 84 W 5 7 29.83 1010 10 16 N/A
6:55 pm 18:55 Cloudy 43 6.2 39 3.8 85 85 W 5 7 29.83 1010 10 16 N/A
7:15 pm 19:15 Cloudy 43 6.2 39 3.8 85 85 W 6 9 29.84 1010 10 16 N/A
7:35 pm 19:35 Cloudy 43 6.1 38 3.6 84 84 N N/A 29.83 1010 10 16 N/A
7:55 pm 19:55 Cloudy 43 6.1 39 3.7 85 85 N N/A 29.85 1011 10 16 N/A
8:15 pm 20:15 Cloudy 43 6 39 4 87 87 SW 3 6 29.86 1011 10 16 N/A
8:35 pm 20:35 Cloudy 43 6.2 39 3.7 84 84 S 5 7 29.86 1011 10 16 N/A
8:55 pm 20:55 Cloudy 43 6 39 4 87 87 SE 5 7 29.85 1011 10 16 N/A
9:15 pm 21:15 Cloudy 42 5.5 39 4.1 91 91 E 5 7 29.85 1011 10 16 N/A
9:35 pm 21:35 Cloudy 42 5.4 39 4 91 91 ESE 5 7 29.85 1011 10 16 N/A
9:55 pm 21:55 Mostly Cloudy 41 5 39 4 93 93 E 7 11 29.85 1011 10 16 N/A
10:15 pm 22:15 Partly Cloudy 40 4.6 39 3.9 95 95 E 6 9 29.86 1011 10 16 N/A
10:35 pm 22:35 Partly Cloudy 39 3.7 37 3 95 95 N N/A 29.87 1011 7 11 N/A
10:55 pm 22:55 Partly Cloudy with Mist and Fog 39 3.7 38 3.1 96 96 SSE 5 7 29.88 1012 4 6 N/A
11:15 pm 23:15 Cloudy with Fog 39 3.9 38 3.4 97 97 SE 6 9 29.88 1012 0 0 N/A
11:35 pm 23:35 Cloudy with Fog 39 3.7 38 3.2 97 97 SSE 3 6 29.89 1012 0 0 N/A
11:55 pm 23:55 Cloudy with Fog 38 3.5 37 3 97 97 N N/A 29.89 1012 0 0 N/A

Powered by AerisWeather